Tracking 23584 objects as of 3-Aug-2021
HD Live streaming from Space Station
objects crossing your sky now

DTUSAT-2

Track DTUSAT-2 now!
10-day predictions
DTUSAT-2 is classified as:


NORAD ID: 40030
Int'l Code: 2014-033W
Perigee: 599.3 km
Apogee: 616.9 km
Inclination: 97.9 °
Period: 96.7 minutes
Semi major axis: 6979 km
RCS: Unknown
Launch date: June 19, 2014
Source: Denmark (DEN)
Launch site: Orenburg, Russia (OREN)

Uplink (MHz): 1268.900
Downlink (MHz): 2401.835
Beacon (MHz): 2401.860
Mode: 9k6CPFSK/1k2 19k2 38k4MSK CW
Call sign: OZ2DTU
Status: Active

aabbcc
Your satellite tracking list
Your tracking list is empty




NASA's NSSDC Master Catalog

Two Line Element Set (TLE):
1 40030U 14033W   21215.05838622  .00000298  00000-0  37613-4 0  9996
2 40030  97.9153 142.2956 0012611  28.1640 332.0256 14.89036071386764
Source of the keplerian elements: AMSAT